Home   Weather   Alexandria   Past weeks
Flag for USA

Past Weather in Alexandria, Louisiana, USA — Yesterday and Last 2 Weeks

Now
86 °F

Scattered clouds.


Feels Like: 97 °F
Forecast: 87 / 73 °F
Wind: 9 mph from Southeast

Location: Alexandria International Airport

Current Time: Sep 18, 2019 at 1:03:22 pm

Latest Report: Sep 18, 2019 at 11:53 am


Visibility: 10 mi

Pressure: 29.96 "Hg

Humidity: 75%

Dew Point: 77 °F

Location of AlexandriaLocation

Past Weather in Alexandria — Graph

°F

Alexandria Temperature Yesterday

Maximum temperature yesterday: 92 °F (at 1:53 pm)
Minimum temperature yesterday: 73 °F (at 6:53 am)
Average temperature yesterday: 79 °F

High & Low Weather Summary for the Past Weeks

 TemperatureHumidityPressure
High99 °F (Sep 6, 3:53 pm)100% (Sep 11, 6:53 am)30.18 "Hg (Sep 11, 6:53 am)
Low69 °F (Sep 4, 5:53 am)30% (Sep 13, 4:53 pm)29.90 "Hg (Sep 3, 3:53 pm)
Average82 °F70%30.02 "Hg
* Reported Sep 3 11:53 am — Sep 18 11:53 am, Alexandria. Weather by CustomWeather, © 2019

Note: Actual official high and low records may vary slightly from our data, if they occured in-between our weather recording intervals... More about our weather records

Advertising

Alexandria Weather History for the Previous 24 Hours

Scroll right to see more
 ConditionsComfort  
Time TempWeatherWind HumidityBarometerVisibility
11:53 am
Wed, Sep 18
86 °FScattered clouds.9 mph75%29.96 "Hg10 mi
10:53 am85 °FScattered clouds.15 mph77%29.96 "Hg10 mi
10:37 am85 °FPartly sunny.13 mph77%29.96 "Hg10 mi
9:53 am84 °FSunny.12 mph80%29.96 "Hg10 mi
8:53 am80 °FBroken clouds.10 mph85%29.97 "Hg10 mi
7:53 am76 °FPartly sunny.9 mph91%29.96 "Hg8 mi
6:53 am74 °FPassing clouds.6 mph94%29.96 "Hg10 mi
5:53 am74 °FClear.5 mph94%29.94 "Hg10 mi
4:53 am74 °FClear.7 mph94%29.93 "Hg10 mi
3:53 am74 °FClear.6 mph94%29.93 "Hg10 mi
2:53 am74 °FClear.6 mph94%29.93 "Hg10 mi
1:53 am74 °FClear.6 mph94%29.93 "Hg10 mi
12:53 am74 °FClear.5 mph97%29.94 "Hg10 mi
11:53 pm
Tue, Sep 17
74 °FClear.5 mph94%29.95 "Hg10 mi
10:53 pm75 °FClear.3 mph94%29.95 "Hg10 mi
9:53 pm75 °FClear.No wind94%29.95 "Hg10 mi
8:53 pm74 °FClear.5 mph97%29.95 "Hg10 mi
7:53 pm74 °FClear.6 mph97%29.95 "Hg10 mi
6:53 pm74 °FLight rain. Sunny.7 mph94%29.95 "Hg7 mi
6:32 pm75 °FLight rain. Passing clouds.12 mph88%29.94 "Hg7 mi
6:16 pm76 °FHeavy rain. Fog.18 mph88%29.93 "Hg2 mi
5:53 pm87 °FThundershowers. Passing clouds.14 mph59%29.94 "Hg10 mi
4:53 pm90 °FPassing clouds.15 mph54%29.93 "Hg10 mi
3:53 pm90 °FBroken clouds.9 mph54%29.92 "Hg10 mi
2:53 pm89 °FScattered clouds.8 mph55%29.94 "Hg9 mi
1:53 pm92 °FPassing clouds.10 mph52%29.96 "Hg10 mi
Weather by CustomWeather, © 2019

See weather overview